Total_Precipitation_Accumulation
0.31 0.39 0.42 0.44 0.50 0.54 0.56 0.60 0.61 0.58 0.63 0.61 0.48 0.45 0.47 0.44 0.35 0.27 0.16 0.10 0.08 0.06 0.06 0.05 0.05 0.05 0.05 0.07 0.11 0.16 0.22 0.31 0.39 0.50 0.63 0.74 0.84 0.95
0.48 0.52 0.53 0.56 0.58 0.56 0.57 0.61 0.62 0.64 0.62 0.52 0.41 0.43 0.40 0.30 0.25 0.19 0.12 0.09 0.06 0.05 0.04 0.03 0.04 0.05 0.05 0.04 0.04 0.05 0.06 0.08 0.12 0.17 0.26 0.38 0.51 0.67
0.60 0.64 0.67 0.69 0.67 0.58 0.56 0.55 0.57 0.62 0.54 0.39 0.30 0.31 0.28 0.22 0.18 0.13 0.09 0.06 0.04 0.05 0.04 0.02 0.02 0.03 0.04 0.03 0.03 0.03 0.04 0.04 0.05 0.07 0.10 0.15 0.20 0.28
0.67 0.75 0.75 0.68 0.59 0.53 0.51 0.51 0.53 0.58 0.51 0.35 0.29 0.28 0.26 0.24 0.20 0.17 0.11 0.07 0.05 0.07 0.05 0.03 0.03 0.02 0.01 0.01 0.01 0.02 0.02 0.02 0.02 0.04 0.07 0.10 0.11 0.12
0.73 0.69 0.65 0.62 0.54 0.47 0.42 0.40 0.42 0.52 0.48 0.33 0.29 0.26 0.26 0.26 0.23 0.19 0.15 0.11 0.07 0.06 0.07 0.06 0.05 0.02 0.01 0.01 0.01 0.01 0.01 0.01 0.03 0.03 0.05 0.08 0.10 0.10
0.68 0.63 0.56 0.49 0.49 0.46 0.39 0.34 0.34 0.35 0.33 0.29 0.27 0.28 0.29 0.28 0.23 0.20 0.17 0.12 0.08 0.04 0.06 0.10 0.08 0.03 0.01 0.01 0.00 0.01 0.01 0.01 0.03 0.04 0.04 0.05 0.11 0.17
0.46 0.43 0.44 0.48 0.45 0.44 0.37 0.31 0.29 0.27 0.27 0.26 0.25 0.27 0.31 0.32 0.26 0.17 0.14 0.12 0.08 0.05 0.04 0.05 0.04 0.02 0.01 0.00 0.00 0.00 0.01 0.01 0.02 0.02 0.03 0.05 0.09 0.20
0.28 0.25 0.23 0.29 0.35 0.36 0.30 0.26 0.24 0.22 0.23 0.24 0.26 0.26 0.27 0.25 0.20 0.16 0.12 0.09 0.09 0.08 0.08 0.06 0.04 0.02 0.00 0.00 0.00 0.01 0.00 0.01 0.02 0.02 0.02 0.02 0.05 0.15
0.18 0.18 0.15 0.15 0.21 0.22 0.18 0.14 0.14 0.15 0.17 0.21 0.25 0.23 0.22 0.20 0.16 0.17 0.16 0.12 0.08 0.06 0.06 0.05 0.03 0.01 0.00 0.00 0.00 0.00 0.00 0.01 0.02 0.04 0.05 0.02 0.01 0.04
0.14 0.13 0.12 0.13 0.14 0.15 0.15 0.12 0.09 0.08 0.11 0.16 0.19 0.19 0.17 0.15 0.14 0.16 0.16 0.14 0.09 0.05 0.04 0.05 0.03 0.02 0.01 0.02 0.00 0.00 0.00 0.00 0.01 0.07 0.18 0.20 0.10 0.05
0.15 0.14 0.12 0.09 0.10 0.11 0.12 0.11 0.08 0.07 0.08 0.11 0.14 0.17 0.18 0.16 0.12 0.11 0.10 0.08 0.06 0.05 0.03 0.03 0.03 0.03 0.04 0.03 0.02 0.01 0.00 0.00 0.01 0.06 0.21 0.45 0.51 0.32
0.18 0.17 0.15 0.11 0.09 0.08 0.10 0.09 0.07 0.04 0.04 0.06 0.09 0.13 0.14 0.14 0.12 0.08 0.06 0.04 0.03 0.03 0.02 0.01 0.01 0.02 0.05 0.04 0.02 0.02 0.01 0.00 0.01 0.06 0.25 0.59 0.71 0.63
0.22 0.20 0.17 0.14 0.11 0.09 0.08 0.09 0.06 0.04 0.03 0.04 0.07 0.11 0.13 0.14 0.11 0.08 0.07 0.04 0.02 0.01 0.01 0.00 0.01 0.01 0.02 0.02 0.01 0.01 0.01 0.01 0.01 0.03 0.12 0.40 0.68 0.71
0.31 0.25 0.22 0.19 0.14 0.13 0.10 0.09 0.07 0.05 0.04 0.05 0.07 0.09 0.11 0.12 0.11 0.09 0.07 0.04 0.02 0.01 0.01 0.00 0.00 0.00 0.01 0.01 0.01 0.01 0.02 0.01 0.03 0.04 0.05 0.14 0.32 0.61
0.41 0.39 0.32 0.27 0.23 0.18 0.17 0.14 0.09 0.05 0.05 0.05 0.06 0.06 0.06 0.06 0.06 0.07 0.07 0.04 0.02 0.01 0.00 0.00 0.00 0.00 0.00 0.01 0.02 0.02 0.02 0.01 0.02 0.05 0.07 0.10 0.21 0.39
0.51 0.50 0.44 0.39 0.35 0.29 0.26 0.22 0.14 0.08 0.06 0.05 0.05 0.05 0.06 0.06 0.05 0.04 0.04 0.03 0.02 0.00 0.00 0.00 0.00 0.00 0.00 0.00 0.00 0.01 0.01 0.01 0.01 0.03 0.07 0.13 0.23 0.32
0.62 0.64 0.59 0.52 0.48 0.41 0.33 0.28 0.21 0.15 0.10 0.06 0.06 0.06 0.06 0.06 0.04 0.03 0.02 0.01 0.01 0.01 0.00 0.00 0.00 0.00 0.00 0.00 0.00 0.00 0.00 0.00 0.00 0.01 0.01 0.05 0.15 0.21
0.71 0.73 0.64 0.55 0.50 0.44 0.36 0.31 0.27 0.20 0.13 0.08 0.07 0.06 0.05 0.05 0.04 0.02 0.02 0.01 0.01 0.01 0.00 0.00 0.00 0.00 0.00 0.00 0.00 0.00 0.00 0.00 0.00 0.00 0.00 0.00 0.03 0.10
0.63 0.66 0.59 0.54 0.47 0.44 0.36 0.29 0.26 0.21 0.15 0.10 0.06 0.05 0.04 0.03 0.03 0.02 0.01 0.01 0.01 0.00 0.00 0.00 0.00 0.00 0.00 0.00 0.00 0.00 0.00 0.00 0.00 0.00 0.00 0.00 0.01 0.02
0.54 0.55 0.51 0.49 0.44 0.42 0.35 0.29 0.24 0.20 0.15 0.11 0.06 0.05 0.04 0.03 0.02 0.02 0.01 0.00 0.00 0.00 0.00 0.00 0.00 0.00 0.00 0.00 0.00 0.00 0.00 0.00 0.00 0.00 0.00 0.00 0.00 0.00
0.47 0.44 0.43 0.41 0.40 0.38 0.33 0.28 0.23 0.18 0.13 0.09 0.05 0.03 0.03 0.03 0.01 0.01 0.00 0.00 0.00 0.00 0.00 0.00 0.00 0.00 0.00 0.00 0.00 0.00 0.00 0.00 0.00 0.00 0.00 0.00 0.00 0.00
0.37 0.36 0.36 0.35 0.33 0.31 0.28 0.25 0.21 0.17 0.11 0.06 0.03 0.02 0.03 0.02 0.01 0.00 0.00 0.00 0.00 0.00 0.00 0.00 0.00 0.00 0.00 0.00 0.00 0.00 0.00 0.00 0.00 0.00 0.00 0.00 0.00 0.00
0.32 0.30 0.29 0.27 0.24 0.22 0.21 0.18 0.16 0.13 0.08 0.04 0.02 0.01 0.01 0.01 0.01 0.00 0.00 0.00 0.00 0.00 0.00 0.00 0.00 0.00 0.00 0.00 0.00 0.00 0.00 0.00 0.00 0.00 0.00 0.00 0.00 0.00